Location: Avenches
(46.8809°N, 7.0410°E)
Time: 12:29:21
(UTC+00:00)

Cosmos 1602 Rocket - Pass Details

Date: 30 March 2020
Orbit: 603 x 634 km, 82.5° (Epoch: 27 May)

Event Time Altitude Azimuth Distance (km) Brightness Sun altitude
Rises 19:10:56 0° 353° (N) 2,939 7.4 -12.8°
Reaches altitude 10° 19:13:13 10° 356° (N) 2,023 6.5 -13.1°
Maximum altitude 19:17:41 64° 79° (ENE) 697 3.6 -13.8°
Enters shadow 19:21:45 12° 161° (SSE) 1,868 5.6 -14.5°
